Change the Weather History Date:

Tuesday, September 3, 2013

  Actual Average Record
Temperature  
Mean Temperature 66 °F -  
Max Temperature 80 °F 65 °F 89 °F (2006)
Min Temperature 51 °F 42 °F 33 °F (1999)
Growing Degree Days 16 (Base 50)    
Moisture  
Dew Point 54 °F    
Average Humidity 79    
Maximum Humidity 100    
Minimum Humidity 37    
Precipitation  
Precipitation 0.00 in - - ()
Sea Level Pressure  
Sea Level Pressure 29.98 in    
Wind  
Wind Speed 3 mph ()    
Max Wind Speed 16 mph    
Max Gust Speed 22 mph    
Visibility 7.1 miles    
Events Rain    
Averages and records for this station are not official NWS values.
T = Trace of Precipitation, MM = Missing Value Source: Averaged Metar Reports

Daily Weather History Graph

Daily Weather History Graph

Search for Another Location

Airport or City:

Trip Planner

Search our weather history database for the weather conditions in past years. The results will help you decide how hot, cold, wet, or windy it might be!

Date:

Astronomy

Sep. 03, 2013 Rise Set
Actual Time 6:24 AM PDT 7:53 PM PDT
Civil Twilight 5:48 AM PDT 8:29 PM PDT
Nautical Twilight 5:03 AM PDT 9:13 PM PDT
Astronomical Twilight 4:14 AM PDT 10:01 PM PDT
Moon 4:36 AM PDT (9/3) 6:45 PM PDT (9/3)
Length of Visible Light 14h 40m
Length of Day
13h 29m
Waning Crescent, 3% of the Moon is Illuminated
Sep 3
Waning Crescent
Sep 5
New
Sep 12
First Quarter
Sep 19
Full
Sep 26
Last Quarter

Hourly Weather History & Observations

Time (PDT) Temp. Dew Point Humidity Pressure Visibility Wind Dir Wind Speed Gust Speed Precip Events Conditions
12:00 AM 59.0 °F 51.8 °F 77% 29.96 in 9.0 mi South 4.6 mph - N/A   Overcast
12:08 AM 59.0 °F 53.6 °F 82% 29.98 in 9.0 mi South 16.1 mph - N/A   Overcast
1:00 AM 62.6 °F 53.6 °F 72% 29.99 in 9.0 mi Variable 2.3 mph - N/A   Mostly Cloudy
1:36 AM 64.4 °F 53.6 °F 68% 29.99 in 9.0 mi East 4.6 mph - N/A Rain Light Rain
2:00 AM 62.6 °F 55.4 °F 77% 29.99 in 9.0 mi ENE 4.6 mph - N/A Rain Light Rain
2:16 AM 62.6 °F 57.2 °F 82% 29.99 in 9.0 mi ENE 4.6 mph - N/A   Mostly Cloudy
3:00 AM 59.0 °F 55.4 °F 88% 29.99 in 9.0 mi NE 3.5 mph - N/A   Partly Cloudy
4:00 AM 55.4 °F 53.6 °F 94% 29.99 in 9.0 mi Variable 2.3 mph - N/A   Clear
4:33 AM 51.8 °F 51.8 °F 100% 30.00 in 4.0 mi Calm Calm - N/A   Clear
4:43 AM 53.6 °F 51.8 °F 94% 30.00 in 7.0 mi Calm Calm - N/A   Scattered Clouds
4:46 AM 53.6 °F 51.8 °F 94% 30.00 in 4.0 mi Calm Calm - N/A   Scattered Clouds
4:52 AM 53.6 °F 51.8 °F 94% 30.00 in 2.5 mi Variable 2.3 mph - N/A   Scattered Clouds
5:00 AM 53.6 °F 53.6 °F 100% 29.99 in 2.5 mi Variable 2.3 mph - N/A   Mostly Cloudy
5:01 AM 53.6 °F 51.8 °F 94% 29.99 in 3.0 mi Variable 2.3 mph - N/A   Mostly Cloudy
5:11 AM 53.6 °F 51.8 °F 94% 29.99 in 2.5 mi NNW 3.5 mph - N/A   Mostly Cloudy
5:21 AM 51.8 °F 50.0 °F 94% 29.99 in 4.0 mi Calm Calm - N/A   Mostly Cloudy
5:22 AM 51.8 °F 51.8 °F 100% 29.99 in 7.0 mi Calm Calm - N/A   Mostly Cloudy
6:00 AM 53.6 °F 51.8 °F 94% 30.00 in 9.0 mi South 3.5 mph - N/A   Scattered Clouds
6:20 AM 51.8 °F 50.0 °F 94% 30.01 in 9.0 mi Calm Calm - N/A   Mostly Cloudy
6:35 AM 51.8 °F 50.0 °F 94% 30.01 in 3.0 mi Calm Calm - N/A   Mostly Cloudy
6:41 AM 51.8 °F 50.0 °F 94% 30.01 in 2.5 mi Calm Calm - N/A   Mostly Cloudy
6:45 AM 51.8 °F 51.8 °F 100% 30.01 in 3.0 mi Calm Calm - N/A   Mostly Cloudy
6:47 AM 51.8 °F 51.8 °F 100% 30.01 in 3.0 mi Calm Calm - N/A   Mostly Cloudy
6:51 AM 51.8 °F 51.8 °F 100% 30.01 in 9.0 mi Calm Calm - N/A   Mostly Cloudy
7:00 AM 51.8 °F 50.0 °F 94% 30.02 in 9.0 mi NE 3.5 mph - N/A   Mostly Cloudy
7:59 AM 57.2 °F 55.4 °F 94% 30.02 in 5.0 mi Variable 2.3 mph - N/A   Overcast
8:00 AM 57.2 °F 55.4 °F 94% 30.03 in 5.0 mi Variable 2.3 mph - N/A   Overcast
8:22 AM 57.2 °F 55.4 °F 94% 30.03 in 6.0 mi SSW 4.6 mph - N/A   Overcast
8:38 AM 59.0 °F 55.4 °F 88% 30.02 in 9.0 mi Variable 2.3 mph - N/A   Scattered Clouds
9:00 AM 59.0 °F 55.4 °F 88% 30.03 in 7.0 mi Variable 2.3 mph - N/A   Scattered Clouds
9:02 AM 59.0 °F 55.4 °F 88% 30.03 in 7.0 mi West 2.3 mph - N/A   Mostly Cloudy
9:09 AM 59.0 °F 55.4 °F 88% 30.03 in 7.0 mi Variable 2.3 mph - N/A   Scattered Clouds
9:36 AM 60.8 °F 55.4 °F 82% 30.01 in 5.0 mi NNW 5.8 mph - N/A   Haze
10:00 AM 62.6 °F 57.2 °F 82% 30.01 in 5.0 mi Variable 2.3 mph - N/A   Haze
10:08 AM 62.6 °F 55.4 °F 77% 30.01 in 6.0 mi Variable 2.3 mph - N/A   Haze
11:00 AM 68.0 °F 57.2 °F 68% 30.00 in 9.0 mi Variable 3.5 mph - N/A   Clear
12:00 PM 71.6 °F 55.4 °F 57% 29.97 in 9.0 mi Calm Calm - N/A   Clear
1:00 PM 75.2 °F 53.6 °F 47% 29.95 in 9.0 mi Variable 2.3 mph - N/A   Clear
2:00 PM 77.0 °F 53.6 °F 44% 29.94 in 9.0 mi Variable 2.3 mph - N/A   Clear
3:00 PM 78.8 °F 53.6 °F 42% 29.92 in 9.0 mi Variable 4.6 mph - N/A   Clear
4:00 PM 80.6 °F 51.8 °F 37% 29.90 in 9.0 mi Variable 2.3 mph - N/A   Clear
5:00 PM 80.6 °F 51.8 °F 37% 29.90 in 9.0 mi Variable 2.3 mph - N/A   Clear
6:00 PM 78.8 °F 57.2 °F 47% 29.88 in 9.0 mi Variable 3.5 mph - N/A   Scattered Clouds
7:00 PM 75.2 °F 55.4 °F 50% 29.90 in 9.0 mi WSW 9.2 mph - N/A   Overcast
7:37 PM 75.2 °F 51.8 °F 44% 29.92 in 9.0 mi SSE 6.9 mph - N/A Rain Light Rain
8:00 PM 69.8 °F 55.4 °F 60% 29.94 in 9.0 mi South 8.1 mph - N/A Rain Light Rain
8:11 PM 69.8 °F 53.6 °F 56% 29.94 in 9.0 mi South 15.0 mph 21.9 mph N/A   Overcast
8:21 PM 69.8 °F 53.6 °F 56% 29.95 in 9.0 mi SSE 10.4 mph 20.7 mph N/A Rain Light Rain
9:00 PM 64.4 °F 57.2 °F 77% 29.96 in 9.0 mi Variable 9.2 mph - N/A Rain Light Rain
9:09 PM 64.4 °F 57.2 °F 77% 29.95 in 9.0 mi Variable 2.3 mph - N/A   Overcast
10:00 PM 64.4 °F 55.4 °F 73% 29.96 in 9.0 mi East 9.2 mph - N/A   Scattered Clouds
11:00 PM 62.6 °F 55.4 °F 77% 29.98 in 9.0 mi Calm Calm - N/A   Clear